Change the Weather History Date:

Tuesday, April 15, 2014

  Actual Average (KEKN) Record (KEKN)
Temperature  
Mean Temperature 46 °F 50 °F  
Max Temperature 64 °F 63 °F 81 °F (1994)
Min Temperature 28 °F 37 °F 17 °F (1971)
Degree Days  
Heating Degree Days 19 15  
Month to date heating degree days 265  
Since 1 July heating degree days 5366  
Cooling Degree Days 0 0  
Month to date cooling degree days 0  
Year to date cooling degree days 0  
Moisture  
Dew Point 38 °F    
Average Humidity 86    
Maximum Humidity 100    
Minimum Humidity 64    
Precipitation  
Precipitation 2.24 in 0.12 in 1.33 in (2007)
Month to date precipitation 1.87  
Year to date precipitation 12.16  
Snow  
Snow 0.00 in - - ()
Month to date snowfall  
Since 1 September snowfall  
Snow Depth -    
Sea Level Pressure  
Sea Level Pressure 29.85 in    
Wind  
Wind Speed 10 mph (West)    
Max Wind Speed 18 mph    
Max Gust Speed 25 mph    
Visibility 6 miles    
Events Rain , Snow    
T = Trace of Precipitation, MM = Missing Value Source: NWS Daily Summary

Daily Weather History Graph

Daily Weather History Graph

Search for Another Location

Airport or City:

Trip Planner

Search our weather history database for the weather conditions in past years. The results will help you decide how hot, cold, wet, or windy it might be!

Date:

Astronomy

Apr. 15, 2014 Rise Set
Actual Time 6:44 AM EDT 7:58 PM EDT
Civil Twilight 6:16 AM EDT 8:25 PM EDT
Nautical Twilight 5:43 AM EDT 8:59 PM EDT
Astronomical Twilight 5:09 AM EDT 9:33 PM EDT
Moon 8:37 PM EDT (4/15) 6:51 AM EDT (4/15)
Length of Visible Light 14h 09m
Length of Day
13h 13m
Full, 100% of the Moon is Illuminated
Apr 15
Full
Apr 22
Last Quarter
Apr 29
New
May 6
First Quarter
May 14
Full

Hourly Weather History & Observations

Time (EDT) Temp. Windchill Dew Point Humidity Pressure Visibility Wind Dir Wind Speed Gust Speed Precip Events Conditions
12:15 AM 62.6 °F - 53.6 °F 72% 29.72 in 10.0 mi South 8.1 mph - N/A   Overcast
12:35 AM 64.4 °F - 53.6 °F 68% 29.71 in 10.0 mi South 10.4 mph - N/A   Overcast
1:15 AM 64.4 °F - 53.6 °F 68% 29.69 in 10.0 mi South 6.9 mph - N/A   Mostly Cloudy
1:35 AM 64.4 °F - 53.6 °F 68% 29.68 in 10.0 mi South 8.1 mph - N/A   Scattered Clouds
1:55 AM 62.6 °F - 53.6 °F 72% 29.67 in 10.0 mi South 6.9 mph - N/A   Clear
2:15 AM 62.6 °F - 53.6 °F 72% 29.66 in 10.0 mi South 5.8 mph - N/A   Scattered Clouds
2:35 AM 62.6 °F - 53.6 °F 72% 29.65 in 10.0 mi South 5.8 mph - N/A   Mostly Cloudy
2:55 AM 62.6 °F - 53.6 °F 72% 29.65 in 10.0 mi SSW 4.6 mph - N/A   Mostly Cloudy
3:15 AM 62.6 °F - 53.6 °F 72% 29.63 in 10.0 mi South 6.9 mph - N/A   Mostly Cloudy
3:35 AM 62.6 °F - 53.6 °F 72% 29.62 in 10.0 mi South 10.4 mph - N/A   Mostly Cloudy
3:55 AM 64.4 °F - 53.6 °F 68% 29.62 in 10.0 mi South 13.8 mph 19.6 mph N/A   Mostly Cloudy
4:15 AM 64.4 °F - 53.6 °F 68% 29.62 in 10.0 mi SSW 16.1 mph 23.0 mph N/A   Mostly Cloudy
4:35 AM 64.4 °F - 53.6 °F 68% 29.60 in 10.0 mi SSW 15.0 mph 21.9 mph N/A   Mostly Cloudy
4:55 AM 64.4 °F - 53.6 °F 68% 29.59 in 10.0 mi SSW 12.7 mph 19.6 mph N/A   Scattered Clouds
5:15 AM 64.4 °F - 53.6 °F 68% 29.58 in 10.0 mi SSW 11.5 mph - N/A   Partly Cloudy
5:35 AM 64.4 °F - 53.6 °F 68% 29.58 in 10.0 mi SSW 13.8 mph 18.4 mph N/A   Mostly Cloudy
5:55 AM 64.4 °F - 53.6 °F 68% 29.57 in 10.0 mi SSW 9.2 mph - N/A   Mostly Cloudy
6:15 AM 62.6 °F - 55.4 °F 77% 29.57 in 7.0 mi SSW 8.1 mph - N/A   Light Drizzle
6:35 AM 59.0 °F - 57.2 °F 94% 29.59 in 2.5 mi West 12.7 mph 24.2 mph 0.14 in Rain Rain
6:55 AM 53.6 °F - 53.6 °F 100% 29.61 in 10.0 mi WNW 15.0 mph 20.7 mph 0.16 in   Drizzle
7:15 AM 51.8 °F - 51.8 °F 100% 29.63 in 10.0 mi West 17.3 mph 24.2 mph N/A   Overcast
7:35 AM 48.2 °F - 48.2 °F 100% 29.67 in 5.0 mi West 16.1 mph 25.3 mph N/A Rain Light Rain
7:55 AM 44.6 °F 36.9 °F 44.6 °F 100% 29.69 in 1.5 mi West 18.4 mph 23.0 mph 0.01 in   Overcast
8:15 AM 44.6 °F 38.1 °F 44.6 °F 100% 29.71 in 1.8 mi West 13.8 mph - 0.01 in Rain Rain
8:35 AM 42.8 °F 37.5 °F 42.8 °F 100% 29.74 in 4.0 mi West 9.2 mph - 0.02 in   Overcast
8:55 AM 42.8 °F 37.5 °F 42.8 °F 100% 29.75 in 1.8 mi West 9.2 mph - 0.03 in   Overcast
9:15 AM 41.0 °F 33.9 °F 41.0 °F 100% 29.77 in 3.0 mi West 12.7 mph - N/A Rain Light Rain
9:55 AM 39.2 °F 31.6 °F 39.2 °F 100% 29.80 in 2.5 mi West 12.7 mph - 0.07 in Rain Rain
10:15 AM 37.4 °F 29.3 °F 37.4 °F 100% 29.81 in 2.0 mi West 12.7 mph 18.4 mph N/A   Overcast
10:35 AM 37.4 °F 30.8 °F 37.4 °F 100% 29.82 in 3.0 mi West 9.2 mph - 0.01 in   Light Drizzle
10:55 AM 37.4 °F 32.1 °F 37.4 °F 100% 29.82 in 2.5 mi West 6.9 mph - 0.01 in   Light Drizzle
11:15 AM 37.4 °F 30.3 °F 37.4 °F 100% 29.83 in 1.2 mi WSW 10.4 mph - N/A Rain Light Rain
11:35 AM 37.4 °F 29.8 °F 37.4 °F 100% 29.84 in 1.5 mi West 11.5 mph 18.4 mph N/A   Overcast
11:55 AM 35.6 °F 28.0 °F 35.6 °F 100% 29.85 in 1.2 mi NW 10.4 mph 19.6 mph 0.01 in Rain Light Rain
12:35 PM 33.8 °F 27.0 °F 33.8 °F 100% 29.87 in 2.0 mi WNW 8.1 mph - 0.03 in   Overcast
12:55 PM 33.8 °F 24.3 °F 33.8 °F 100% 29.88 in 1.2 mi NNW 13.8 mph 18.4 mph 0.09 in Snow Light Snow
1:35 PM 33.8 °F 28.6 °F 33.8 °F 100% 29.89 in 1.2 mi NW 5.8 mph - 0.16 in Snow Light Snow
2:15 PM 33.8 °F - 33.8 °F 100% 29.89 in 1.0 mi Calm Calm - 0.16 in Snow Light Snow
2:35 PM 33.8 °F 26.4 °F 33.8 °F 100% 29.92 in 1.8 mi West 9.2 mph - 0.26 in Snow Light Snow
2:55 PM 32.0 °F 24.2 °F 32.0 °F 100% 29.91 in 2.5 mi WNW 9.2 mph 17.3 mph 0.33 in Snow Light Snow
3:15 PM 32.0 °F 22.5 °F 32.0 °F 100% 29.92 in 0.5 mi West 12.7 mph 18.4 mph 0.48 in Snow Snow
3:35 PM 32.0 °F 25.6 °F 32.0 °F 100% 29.92 in 0.8 mi NW 6.9 mph - 0.90 in Snow Light Snow
3:55 PM 32.0 °F 23.0 °F 32.0 °F 100% 29.94 in 0.8 mi West 11.5 mph - 1.19 in Snow Light Snow
4:15 PM 32.0 °F 23.6 °F 32.0 °F 100% 29.95 in 1.0 mi WNW 10.4 mph 20.7 mph 0.09 in Snow Light Snow
4:35 PM 32.0 °F 24.8 °F 32.0 °F 100% 29.94 in 3.0 mi WNW 8.1 mph 18.4 mph 0.10 in   Overcast
4:55 PM 32.0 °F 22.5 °F 32.0 °F 100% 29.97 in 2.5 mi West 12.7 mph 18.4 mph 0.11 in   Overcast
5:15 PM 32.0 °F 24.2 °F 32.0 °F 100% 29.94 in 8.0 mi WNW 9.2 mph - N/A Rain Light Rain
5:35 PM 32.0 °F 23.6 °F 32.0 °F 100% 29.96 in 4.0 mi NW 10.4 mph 17.3 mph N/A   Overcast
5:55 PM 32.0 °F 24.2 °F 32.0 °F 100% 29.98 in 10.0 mi West 9.2 mph 17.3 mph N/A   Overcast
6:15 PM 32.0 °F 22.5 °F 30.2 °F 93% 29.99 in 10.0 mi WNW 12.7 mph 19.6 mph N/A   Overcast
6:35 PM 32.0 °F 26.4 °F 30.2 °F 93% 30.00 in 6.0 mi NW 5.8 mph 18.4 mph N/A   Mostly Cloudy
6:55 PM 32.0 °F 23.6 °F 30.2 °F 93% 30.01 in 2.0 mi NNW 10.4 mph - 0.03 in   Overcast
7:15 PM 32.0 °F 23.6 °F 30.2 °F 93% 30.03 in 5.0 mi NW 10.4 mph 17.3 mph N/A Rain Light Rain
7:35 PM 32.0 °F 24.8 °F 28.4 °F 87% 30.04 in 10.0 mi NW 8.1 mph - N/A   Overcast
7:55 PM 30.2 °F 20.8 °F 28.4 °F 93% 30.05 in 2.5 mi WNW 11.5 mph - 0.04 in Rain Light Freezing Rain
8:15 PM 30.2 °F 22.6 °F 26.6 °F 86% 30.07 in 10.0 mi NW 8.1 mph 18.4 mph N/A   Mostly Cloudy
8:35 PM 30.2 °F 21.9 °F 23.0 °F 75% 30.08 in 10.0 mi NW 9.2 mph 20.7 mph N/A   Overcast
8:55 PM 30.2 °F 20.8 °F 23.0 °F 75% 30.10 in 10.0 mi NNW 11.5 mph 21.9 mph N/A   Overcast
9:15 PM 30.2 °F 20.8 °F 21.2 °F 69% 30.13 in 10.0 mi NW 11.5 mph 18.4 mph N/A   Overcast
9:35 PM 30.2 °F 20.2 °F 21.2 °F 69% 30.14 in 10.0 mi NW 12.7 mph 19.6 mph N/A   Overcast
9:55 PM 30.2 °F 21.3 °F 19.4 °F 64% 30.14 in 10.0 mi NNW 10.4 mph - N/A   Overcast
10:15 PM 30.2 °F 20.8 °F 19.4 °F 64% 30.15 in 10.0 mi NW 11.5 mph - N/A   Overcast
10:35 PM 30.2 °F 20.8 °F 19.4 °F 64% 30.16 in 10.0 mi NW 11.5 mph 20.7 mph N/A   Overcast
10:55 PM 28.4 °F 18.5 °F 17.6 °F 64% 30.16 in 10.0 mi NW 11.5 mph 23.0 mph N/A   Overcast
11:15 PM 28.4 °F 19.1 °F 17.6 °F 64% 30.16 in 10.0 mi NW 10.4 mph 16.1 mph N/A   Overcast
11:35 PM 28.4 °F 19.1 °F 17.6 °F 64% 30.17 in 10.0 mi NNW 10.4 mph 17.3 mph N/A   Overcast
11:55 PM 28.4 °F 19.1 °F 17.6 °F 64% 30.17 in 10.0 mi NNW 10.4 mph 17.3 mph N/A   Overcast